Voltar ao catálogo

STARLINK-38118

AtivoComunicaçõesSSO
NORAD 100108·PAYLOAD·🇺🇸 United States

Lançado Jul 21, 2026 de Vandenberg Space Force Base

Loading…

Próximas Passagens (próximas 24 horas)

TLE

AtualizadoSource: Space-Track

Época: Sep 14, 2026, 00:04 UTC

1 A0108U 26166H   26257.00327009  .00207587  00000-0  13562-2 0  9991
2 A0108  97.2833 275.0800 0001371 110.2273 249.9140 15.75238706  8587

Acompanhe STARLINK-38118 em tempo real com AllMySat

Download on the App Store